This is the latest recevied weather packets stored in our database for station/object WA9SDJ-13. If no packets are shown the sender has not sent any weather packets the latest 10 day(s).
| Time | Temp. | Humidity | Pressure | Rain* | Wind** | Luminosity | Snow |
|---|---|---|---|---|---|---|---|
| 1778176589 | 16.67° C | 41% | 1014.9 hPa | 0 mm | - | 1020 W/m² | - |
| 1778176527 | 16.67° C | 39% | 1014.9 hPa | 0 mm | - | 1034 W/m² | - |
| 1778176465 | 16.67° C | 40% | 1015 hPa | 0 mm | - | 1058 W/m² | - |
| 1778176404 | 16.67° C | 45% | 1015 hPa | 0 mm | - | 1062 W/m² | - |
| 1778176342 | 16.67° C | 41% | 1014.8 hPa | 0 mm | - | 165 W/m² | - |
| 1778176280 | 16.67° C | 39% | 1014.8 hPa | 0 mm | - | 563 W/m² | - |
| 1778176219 | 16.67° C | 39% | 1014.9 hPa | 0 mm | - | 874 W/m² | - |
| 1778176158 | 16.67° C | 38% | 1014.9 hPa | 0 mm | - | 737 W/m² | - |
| 1778176096 | 16.67° C | 37% | 1014.9 hPa | 0 mm | - | 301 W/m² | - |
| 1778176035 | 16.67° C | 38% | 1015 hPa | 0 mm | - | 301 W/m² | - |
| 1778175973 | 16.67° C | 40% | 1015 hPa | 0 mm | - | 199 W/m² | - |
| 1778175912 | 16.67° C | 42% | 1014.9 hPa | 0 mm | - | 1046 W/m² | - |
| 1778175850 | 16.67° C | 44% | 1015 hPa | 0 mm | - | 988 W/m² | - |
| 1778175789 | 16.67° C | 42% | 1014.9 hPa | 0 mm | - | 983 W/m² | - |
| 1778175728 | 16.67° C | 47% | 1014.9 hPa | 0 mm | - | 985 W/m² | - |
| 1778175663 | 16.67° C | 45% | 1014.9 hPa | 0 mm | - | 986 W/m² | - |
| 1778175603 | 16.67° C | 46% | 1014.9 hPa | 0 mm | - | 988 W/m² | - |
| 1778175542 | 16.67° C | 43% | 1015 hPa | 0 mm | - | 985 W/m² | - |
| 1778175482 | 16.67° C | 41% | 1015 hPa | 0 mm | - | 985 W/m² | - |
| 1778175422 | 16.67° C | 41% | 1015 hPa | 0 mm | - | 981 W/m² | - |
| 1778175363 | 16.67° C | 45% | 1015 hPa | 0 mm | - | 979 W/m² | - |
| 1778175304 | 16.67° C | 43% | 1015 hPa | 0 mm | - | 978 W/m² | - |
| 1778175242 | 16.67° C | 45% | 1015 hPa | 0 mm | - | 978 W/m² | - |
| 1778175182 | 16.67° C | 42% | 1015 hPa | 0 mm | - | 976 W/m² | - |
| 1778175122 | 16.67° C | 47% | 1015 hPa | 0 mm | - | 978 W/m² | - |
* Rain latest hour (hover to see other rain measurements)
** Current wind speed in m/s (hover to see current wind gust speed)